sat.trackr.live / text

‹ back to catalog

KUIPER-00175

NORAD 67135 · 2025-301C

PAYLOAD ACTIVE UNKNOWN

§ Identity

Operator
Country
US
Launch date
2025-12-16
Launch site
AFETR
Launch vehicle
Mass (kg)
RCS (m²)

External: N2YO · Heavens-Above · Gunter

§ Orbital elements

Epoch: 2026-05-25T04:39:32.661792Z

Period
96.50 min
Inclination
51.8951°
Eccentricity
0.0001059
Mean motion
14.92194281 rev/d
Perigee alt
590.4 km
Apogee alt
591.8 km
Semi-major
6,969.2 km
B*
4.3878e-4
RAAN
75.8322°
Arg perigee
54.0050°
Mean anomaly
306.1015°
Rev number
2,529

§ Raw data

KUIPER-001751 67135U 25301C   26145.19412803  .00004272  00000+0  43878-3 0  99962 67135  51.8951  75.8322 0001059  54.0050 306.1015 14.92194281 25294

JSON: /api/v1/satellites/67135 · /tle

For live sub-satellite position, see the globe view (requires WebGL).

§ Visibility from observer

Set your observer location to see the next 7 days of passes ≥ 10°. The values pass through the URL so the page stays shareable.

No JS? Fill the form by hand. The geolocation button needs JavaScript.